Weather History for Estherville, IA

Change the Weather History Date:

Friday, September 13, 2013

  Actual Average Record
Temperature  
Mean Temperature 57 °F 62 °F  
Max Temperature 72 °F 74 °F 91 °F (1990)
Min Temperature 42 °F 50 °F 31 °F (2014)
Degree Days  
Heating Degree Days 8 5  
Month to date heating degree days 18 42  
Since 1 July heating degree days 63 74  
Cooling Degree Days 0 2  
Month to date cooling degree days 84 32  
Year to date cooling degree days 678 572  
Growing Degree Days 7 (Base 50)    
Moisture  
Dew Point 45 °F    
Average Humidity 68    
Maximum Humidity 100    
Minimum Humidity 35    
Precipitation  
Precipitation 0.00 in 0.11 in 1.45 in (1982)
Month to date precipitation 0.01 1.34  
Sea Level Pressure  
Sea Level Pressure 30.20 in    
Wind  
Wind Speed 4 mph (ENE)    
Max Wind Speed 9 mph    
Max Gust Speed 14 mph    
Visibility 10 miles    
Events      
T = Trace of Precipitation, MM = Missing Value Source: NWS Daily Summary

Daily Weather History Graph

Daily Weather History Graph

Search for Another Location

Airport:

Trip Planner

Search our weather history database for the weather conditions in past years. The results will help you decide how hot, cold, wet, or windy it might be!

Date:

Astronomy

Sep. 13, 2013 Rise Set
Actual Time 6:56 AM CDT 7:32 PM CDT
Civil Twilight 6:27 AM CDT 8:00 PM CDT
Nautical Twilight 5:53 AM CDT 8:34 PM CDT
Astronomical Twilight 5:18 AM CDT 9:09 PM CDT
Moon 3:30 PM CDT (9/13) 12:19 AM CDT (9/13)
Length of Visible Light 13h 33m
Length of Day
12h 35m
First Quarter, 61% of the Moon is Illuminated
Sep 13
First Quarter
Sep 19
Full
Sep 26
Last Quarter
Oct 4
New
Oct 11
First Quarter

Hourly Weather History & Observations

Time (CDT) Temp. Windchill Dew Point Humidity Pressure Visibility Wind Dir Wind Speed Gust Speed Precip Events Conditions
12:52 AM 48.9 °F - 46.0 °F 90% 30.23 in 10.0 mi North 4.6 mph - N/A   Clear
1:52 AM 46.0 °F - 45.0 °F 96% 30.24 in 10.0 mi Calm Calm - N/A   Clear
2:52 AM 46.9 °F - 44.1 °F 90% 30.24 in 10.0 mi NNW 3.5 mph - N/A   Clear
3:52 AM 45.0 °F 42.6 °F 43.0 °F 93% 30.24 in 10.0 mi North 4.6 mph - N/A   Clear
4:52 AM 44.1 °F 41.5 °F 43.0 °F 96% 30.24 in 10.0 mi North 4.6 mph - N/A   Clear
5:52 AM 43.0 °F 39.5 °F 42.1 °F 97% 30.25 in 10.0 mi NW 5.8 mph - N/A   Clear
6:52 AM 43.0 °F 41.3 °F 42.1 °F 97% 30.26 in 10.0 mi WNW 3.5 mph - N/A   Clear
7:52 AM 46.9 °F - 45.0 °F 93% 30.27 in 10.0 mi Calm Calm - N/A   Clear
8:52 AM 55.0 °F - 48.9 °F 80% 30.28 in 10.0 mi ENE 4.6 mph - N/A   Clear
9:52 AM 59.0 °F - 50.0 °F 72% 30.28 in 10.0 mi ESE 3.5 mph - N/A   Clear
10:52 AM 64.0 °F - 48.0 °F 56% 30.27 in 10.0 mi Calm Calm - N/A   Clear
11:52 AM 66.9 °F - 45.0 °F 45% 30.25 in 10.0 mi Calm Calm - N/A   Clear
12:52 PM 68.0 °F - 44.1 °F 42% 30.23 in 10.0 mi NE 8.1 mph - N/A   Clear
1:52 PM 70.0 °F - 44.1 °F 39% 30.21 in 10.0 mi Variable 5.8 mph - N/A   Clear
2:52 PM 70.0 °F - 44.1 °F 39% 30.18 in 10.0 mi Variable 4.6 mph - N/A   Clear
3:52 PM 71.1 °F - 44.1 °F 38% 30.17 in 10.0 mi East 6.9 mph - N/A   Clear
4:52 PM 71.1 °F - 42.1 °F 35% 30.15 in 10.0 mi Variable 3.5 mph - N/A   Clear
5:52 PM 70.0 °F - 44.1 °F 39% 30.14 in 10.0 mi SE 4.6 mph - N/A   Clear
6:52 PM 66.9 °F - 46.9 °F 49% 30.13 in 10.0 mi ESE 4.6 mph - N/A   Clear
7:52 PM 55.9 °F - 46.9 °F 72% 30.12 in 10.0 mi SE 6.9 mph - N/A   Clear
8:52 PM 52.0 °F - 45.0 °F 77% 30.12 in 10.0 mi SSE 6.9 mph - N/A   Clear
9:52 PM 51.1 °F - 45.0 °F 80% 30.11 in 10.0 mi SE 6.9 mph - N/A   Clear
10:52 PM 48.0 °F - 43.0 °F 83% 30.11 in 10.0 mi Calm Calm - N/A   Clear
11:52 PM 48.0 °F - 44.1 °F 86% 30.11 in 10.0 mi South 5.8 mph - N/A   Clear